Regional Weather Roundup
Issued by NWS Kansas City/Pleasant Hill, MO

Home | Current Version | Previous Version | Text Only | Print | Product List | Glossary On
Versions: 1 2 3 4 5 6 7 8 9 10 11 12 13 14 15 16 17 18 19 20 21 22 23 24 25 26 27 28 29 30 31 32 33 34 35 36 37 38 39 40 41 42 43 44 45 46 47 48 49 50
000
ASUS43 KEAX 221710
RWREAX

WEATHER ROUNDUP FOR EASTERN KANSAS AND NORTHWEST MISSOURI
NATIONAL WEATHER SERVICE KANSAS CITY/PLEASANT HILL MO
1200 PM CDT SUN OCT 22 2017

KSZ040-057-103>105-MOZ028-029-037-043-221800-
...KANSAS CITY METROPOLITAN AREA...

CITY           SKY/WX    TMP DP  RH WIND       PRES   REMARKS
K.C. INTL      PTSUNNY   58  47  66 NW8       30.14R
K.C. DOWNTOWN  CLOUDY    58  47  66 NW9       30.14R
LEES SUMMIT    CLOUDY    58  47  66 NW9       30.14R
OLATHE - IXD   PTSUNNY   58  46  64 NW13      30.15R
OLATHE - OJC   CLOUDY    56  44  64 NW9       30.15R
LAWRENCE       CLOUDY    58  47  66 W12       30.15S

$$

MOZ001>008-011>017-020>025-030>033-038>040-044>046-053-054-221800-
...NORTHERN AND CENTRAL MISSOURI...

CITY           SKY/WX    TMP DP  RH WIND       PRES   REMARKS
ST. JOSEPH     MOSUNNY   59  46  62 NW9       30.14R
MOSBY          CLOUDY    59  43  55 NW15G21   30.13R
WARRENSBURG    CLOUDY    54  46  76 NW7       30.13S
WHITEMAN AFB   PTSUNNY   53  49  87 W6        30.10R
CLINTON        PTSUNNY   54  48  82 N5        30.15R
SEDALIA        CLOUDY    53  51  93 NW8       30.13R
WARSAW         NOT AVBL
CHILLICOTHE      N/A     58  49  72 NW3       30.12R
KIRKSVILLE     CLOUDY    53  51  93 NW7       30.08R

$$

MOZ041-047>049-056>058-063>065-088>090-097-221800-
...EASTERN AND SOUTHERN MISSOURI...

CITY           SKY/WX    TMP DP  RH WIND       PRES   REMARKS
ST. LOUIS INTL CLOUDY    60  58  92 NW10      29.99R
SPIRIT OF STL  LGT RAIN  59  58  96 W15       30.00R FOG
COLUMBIA       LGT RAIN  51  50  96 N17       30.09R FOG
JEFFERSON CITY LGT RAIN  53  49  86 N12G21    30.09R
ROLLA          CLOUDY    53  52  96 NW13      30.07R FOG
OSAGE BEACH    LGT RAIN  51  51 100 VRB7      30.11R FOG
SPRINGFIELD    LGT RAIN  53  52  96 N17       30.11S FOG
BRANSON        LGT RAIN  52  52 100 NW8       30.11R FOG
JOPLIN         CLOUDY    55  49  80 N12       30.16R
WEST PLAINS    CLOUDY    62  59  90 W5        30.04S

$$

IAZ060-094-KSZ022-034>040-054-083-096-NEZ052-066-093-221800-
...KANSAS...SOUTHEAST NEBRASKA AND IOWA...

CITY           SKY/WX    TMP DP  RH WIND       PRES   REMARKS
TOPEKA         CLOUDY    59  49  69 W6        30.16S
MANHATTAN      SUNNY     65  39  38 W7        30.17F
EMPORIA        SUNNY     62  43  49 NW12      30.18S
CHANUTE        MOSUNNY   60  43  53 NW14      30.17R
WICHITA        SUNNY     63  40  42 VRB6      30.20S
OMAHA          MOSUNNY   61  39  44 S5        30.12S
LINCOLN        SUNNY     64  36  35 SW10      30.14F
FALLS CITY       N/A     62  41  46 NW9       30.14R
LAMONI         CLOUDY    58  45  62 NW8       30.10R
DES MOINES     PTSUNNY   58  43  57 NW8       30.08S

$$




USA.gov is the U.S. government's official web portal to all federal, state and local government web resources and services.